Regional Weather Roundup
Issued by NWS Sterling, VA

Home | Current Version | Previous Version | Graphics & Text | Print | Product List | Glossary On
Versions: 1 2 3 4 5 6 7 8 9 10 11 12 13 14 15 16 17 18 19 20 21 22 23 24 25 26 27
000
ASUS41 KLWX 230010
RWRLWX

REGIONAL WEATHER ROUNDUP
NATIONAL WEATHER SERVICE BALTIMORE MD/WASHINGTON DC
800 PM EDT WED OCT 22 2014

Note: "FAIR" indicates few or no clouds below 12,000 feet
with no significant weather and/or obstructions to visibility.
 TC=TEMPERATURE CELSIUS

 * =Non NWS site. Station does not report precipitation (e.g. rain,
    snow, etc.), thunder, or fog.

DCZ001-MDZ009-015-VAZ040>042-051-053>054-230100-
WASHINGTON METRO

CITY           SKY/WX    TMP DP  RH WIND       PRES   REMARKS
WASHINGTON NAT CLOUDY    58  48  69 NW10      29.94S
DULLES         MOCLDY    53  45  74 NW17G24   29.96S
ANDREWS AFB    DRIZZLE   54  48  82 NW14      29.92S
FT BELVOIR     CLOUDY    56  46  69 NW15G23   29.94S
QUANTICO       CLOUDY    56  46  69 N12G26    29.95S
COLLEGE PARK*  CLOUDY    55  46  71 N12G17    29.93S
LEESBURG*      PTCLDY    54  46  76 N13G18    29.98S
MANASSAS*      CLOUDY    55  46  71 N20G28    29.96S
GAITHERSBURG*  CLOUDY    54  46  76 NW6       29.98S

$$

MDZ006>007-011-014-230100-
BALTIMORE METRO

CITY           SKY/WX    TMP DP  RH WIND       PRES   REMARKS
BWI AIRPORT    CLOUDY    54  46  74 NW9G20    29.92R
MD SCIENCE CTR   N/A     55  46  71 MISG      29.91S
MARTIN STATE   CLOUDY    55  50  82 NW14G22   29.92S
ANNAPOLIS      LGT RAIN  55  49  80 NW17      29.91R
FORT MEADE*    CLOUDY    54  46  76 NW12G17   29.95R

$$

MDZ012-015-019>023-230100-
MARYLAND EASTERN SHORE

CITY           SKY/WX    TMP DP  RH WIND       PRES   REMARKS
OCEAN CITY     LGT RAIN  54  51  90 N14G25    29.78S
SALISBURY      LGT RAIN  56  51  84 NW22G31   29.82S
BAY BRIDGE AP* DRIZZLE   54  46  76 NW23G32   29.89F
CAMBRIDGE*     CLOUDY    55  52  88 NW16      29.86S VSB<1/4
EASTON*        DRIZZLE   55  55 100 N17       29.91S

$$

MDZ017>025-230100-
SOUTHERN MARYLAND

CITY           SKY/WX    TMP DP  RH WIND       PRES   REMARKS
PATUXENT RIVER LGT RAIN  54  50  86 NW23      29.89R
ST INIGOES     LGT RAIN  53  48  83 NW10G20   29.89R
LEONARDTOWN*   CLOUDY    52  48  87 W8G16     29.92R

$$

MDZ003>005-230100-
NORTH CENTRAL MARYLAND

CITY           SKY/WX    TMP DP  RH WIND       PRES   REMARKS
FREDERICK*     CLOUDY    61  45  55 N12G17    29.99S
HAGERSTOWN APT CLOUDY    53  42  66 NW13      30.00S
WESTMINSTER*   CLOUDY    52  46  82 N13G18    29.95S

$$

MDZ501>502-230100-
WESTERN MARYLAND

CITY           SKY/WX    TMP DP  RH WIND       PRES   REMARKS
OAKLAND*       FOG       37 N/A N/A NW8       30.11R VSB 1
CUMBERLAND*    CLOUDY    52  41  66 NW15G23   30.12S

$$

VAZ025>031-230100-
SHENANDOAH VALLEY

CITY           SKY/WX    TMP DP  RH WIND       PRES   REMARKS
WINCHESTER*    MOCLDY    52  37  58 NW13G21   30.02S
FRONT ROYAL*   CLOUDY    52  43  71 NW7G22    30.03R
LURAY*         CLOUDY    54  45  71 N12       30.04S
NEW MARKET*    CLOUDY    51  42  71 N5        30.05S
STAUNTON*      CLEAR     52  40  64 N13G21    30.05S
WAYNESBORO*    FAIR      49  40  72 NW10G16   30.02S

$$

WVZ021-048>050-054>055-230100-
EASTERN WEST VIRGINIA PANHANDLE

CITY           SKY/WX    TMP DP  RH WIND       PRES   REMARKS
MARTINSBURG    PTCLDY    53  40  61 NW16G22   30.02R
PETERSBURG*    CLOUDY    51  40  66 N7        30.11R

$$

VAZ036>039-050-230100-
CENTRAL FOOTHILLS

CITY           SKY/WX    TMP DP  RH WIND       PRES   REMARKS
CHARLOTTESVILL PTCLDY    54  42  64 N10G18    29.99S
CULPEPER*      MOCLDY    55  45  67 NW10G20   29.99S
ORANGE*        PTCLDY    54  45  71 W10       29.99S
GORDONSVILLE*  FAIR      53  44  72 NW7       29.98S
WARRENTON*     FAIR      54  49  83 NW14G24   29.97R

$$

VAZ055>057-230100-
NORTH AND CENTRAL PIEDMONT

CITY           SKY/WX    TMP DP  RH WIND       PRES   REMARKS
FREDERICKSBRG* CLOUDY    55  47  74 NW12G17   29.95R
STAFFORD*      CLOUDY    53  45  73 NW13G20   29.99S

$$

NCZ024-NYZ072-PAZ021-071-VAZ022-071-230100-
OTHER REGIONAL OBSERVATIONS

CITY           SKY/WX    TMP DP  RH WIND       PRES   REMARKS
NEW YORK CITY  LGT RAIN  52  49  89 N8        29.81F FOG
PHILADELPHIA   RAIN      54  50  86 N15       29.84F
PITTSBURGH     CLOUDY    48  41  76 N9        30.18S
ROANOKE        PTCLDY    52  38  58 W8        30.08S
RICHMOND       CLOUDY    56  47  71 NW15G22   29.95R
RALEIGH        PTCLDY    57  41  55 W7        30.00R

$$

ANZ530>537-230100-
MARINE OBSERVATIONS

STATION/POSITION TIME  TEMP    WIND        PRES
                       AIR SEA DIR/SP/G
                 (UTC) (F)     (DEG/KT/KT) (MB)
THOMAS PT LIGHT  0000   54 63  340/ 19/ 21 1013.1R
BALT KEY BRIDGE  0000   56     330/ 16/ 20 1012.6R
COVE POINT       0000   56     350/ 26/ 29 1011.9R
LEWISETTA        0000   56 62  340/ 18/ 25 1012.1S
SOLOMONS ISLAND  0000      64                N/A
PINEY POINT      0000          340/ 23/ 27   N/A

$$




USA.gov is the U.S. government's official web portal to all federal, state and local government web resources and services.